Clinton, OK

2:37 AM CDT on October 19, 2017 (GMT -0500)
Clinton Municipal

Weather History for KCLK - December, 2012

Change the Weather History Date:

Monday, December 10, 2012

  Actual Average (KCSM) Record (KCSM)
Temperature  
Mean Temperature 26 °F -  
Max Temperature 37 °F 50 °F 78 °F (1996)
Min Temperature 15 °F 30 °F 10 °F (2013)
Degree Days  
Heating Degree Days 39    
Moisture  
Dew Point 1 °F    
Average Humidity 35    
Maximum Humidity 50    
Minimum Humidity 18    
Precipitation  
Precipitation 0.00 in - - ()
Sea Level Pressure  
Sea Level Pressure 30.11 in    
Wind  
Wind Speed 12 mph (NW)    
Max Wind Speed 23 mph    
Max Gust Speed 29 mph    
Visibility 10 miles    
Events      
Averages and records for this station are not official NWS values.
T = Trace of Precipitation, MM = Missing Value Source: NWS Daily Summary

Daily Weather History Graph

Daily Weather History Graph

Search for Another Location

Airport or City:

Trip Planner

Search our weather history database for the weather conditions in past years. The results will help you decide how hot, cold, wet, or windy it might be!

Date:

Astronomy

Dec. 10, 2012 Rise Set
Actual Time 7:34 AM CST 5:22 PM CST
Civil Twilight 7:06 AM CST 5:51 PM CST
Nautical Twilight 6:34 AM CST 6:23 PM CST
Astronomical Twilight 6:03 AM CST 6:54 PM CST
Moon 4:23 AM CST (12/10) 3:10 PM CST (12/10)
Length of Visible Light 10h 44m
Length of Day
9h 48m
Waning Crescent, 10% of the Moon is Illuminated
Dec 10
Waning Crescent
Dec 13
New
Dec 19
First Quarter
Dec 28
Full
Jan 4
Last Quarter

Hourly Weather History & Observations

Time (CST) Temp. Windchill Dew Point Humidity Pressure Visibility Wind Dir Wind Speed Gust Speed Precip Events Conditions
12:15 AM 30.2 °F 17.4 °F 3.2 °F 32% 30.17 in 10.0 mi NNW 20.7 mph 27.6 mph N/A   Clear
12:35 AM 28.4 °F 15.1 °F 3.2 °F 34% 30.17 in 10.0 mi NNW 20.7 mph 27.6 mph N/A   Clear
12:55 AM 28.4 °F 15.8 °F 5.0 °F 37% 30.18 in 10.0 mi North 18.4 mph 28.8 mph N/A   Clear
1:15 AM 28.4 °F 17.0 °F 5.0 °F 37% 30.19 in 10.0 mi NNW 15.0 mph - N/A   Clear
1:35 AM 26.6 °F 12.0 °F 5.0 °F 40% 30.18 in 10.0 mi NNW 23.0 mph 28.8 mph N/A   Clear
1:55 AM 26.6 °F 15.2 °F 5.0 °F 40% 30.17 in 10.0 mi North 13.8 mph - N/A   Clear
2:15 AM 24.8 °F 12.9 °F 5.0 °F 43% 30.17 in 10.0 mi NNW 13.8 mph - N/A   Clear
2:35 AM 24.8 °F 12.9 °F 5.0 °F 43% 30.17 in 10.0 mi NNW 13.8 mph 18.4 mph N/A   Clear
2:55 AM 24.8 °F 12.4 °F 5.0 °F 43% 30.18 in 10.0 mi NNW 15.0 mph - N/A   Clear
3:15 AM 23.0 °F 10.6 °F 5.0 °F 46% 30.17 in 10.0 mi NNW 13.8 mph 19.6 mph N/A   Clear
3:35 AM 23.0 °F 12.4 °F 5.0 °F 46% 30.17 in 10.0 mi NNW 10.4 mph - N/A   Clear
3:55 AM 23.0 °F 11.1 °F 5.0 °F 46% 30.17 in 10.0 mi NNW 12.7 mph 19.6 mph N/A   Clear
4:15 AM 21.2 °F 10.1 °F 5.0 °F 50% 30.17 in 10.0 mi NNW 10.4 mph - N/A   Clear
4:35 AM 21.2 °F 9.5 °F 3.2 °F 46% 30.17 in 10.0 mi NNW 11.5 mph - N/A   Clear
4:55 AM 19.4 °F 10.4 °F 3.2 °F 49% 30.18 in 10.0 mi NNW 6.9 mph - N/A   Clear
5:15 AM 19.4 °F 8.6 °F 3.2 °F 49% 30.18 in 10.0 mi NNW 9.2 mph - N/A   Clear
5:35 AM 19.4 °F 6.6 °F 3.2 °F 49% 30.17 in 10.0 mi NNW 12.7 mph - N/A   Clear
5:55 AM 19.4 °F 7.2 °F 1.4 °F 46% 30.18 in 10.0 mi North 11.5 mph - N/A   Clear
6:15 AM 19.4 °F 7.2 °F 1.4 °F 46% 30.17 in 10.0 mi NNW 11.5 mph - N/A   Clear
6:35 AM 17.6 °F 7.3 °F 1.4 °F 49% 30.17 in 10.0 mi NNW 8.1 mph - N/A   Clear
6:55 AM 17.6 °F 6.4 °F 1.4 °F 49% 30.18 in 10.0 mi NW 9.2 mph - N/A   Clear
7:15 AM 17.6 °F 4.3 °F -0.4 °F 45% 30.18 in 10.0 mi NNW 12.7 mph - N/A   Clear
7:35 AM 17.6 °F 7.3 °F -0.4 °F 45% 30.18 in 10.0 mi NNW 8.1 mph - N/A   Clear
7:55 AM 15.8 °F 5.1 °F -0.4 °F 49% 30.18 in 10.0 mi NW 8.1 mph - N/A   Clear
8:35 AM 17.6 °F 8.2 °F -0.4 °F 45% 30.19 in 10.0 mi WNW 6.9 mph - N/A   Clear
9:15 AM 21.2 °F 12.6 °F -0.4 °F 39% 30.20 in 10.0 mi NW 6.9 mph - N/A   Clear
9:35 AM 21.2 °F 11.7 °F -2.2 °F 36% 30.20 in 10.0 mi NNW 8.1 mph - N/A   Clear
9:55 AM 23.0 °F 13.9 °F -4.0 °F 31% 30.19 in 10.0 mi NW 8.1 mph - N/A   Clear
10:35 AM 26.6 °F 20.0 °F -4.0 °F 26% 30.19 in 10.0 mi NNW 5.8 mph - N/A   Clear
11:15 AM 28.4 °F 22.2 °F -4.0 °F 25% 30.17 in 10.0 mi NW 5.8 mph - N/A   Clear
11:35 AM 30.2 °F 22.6 °F -4.0 °F 23% 30.17 in 10.0 mi NNW 8.1 mph - N/A   Clear
11:55 AM 32.0 °F 27.5 °F -4.0 °F 21% 30.16 in 10.0 mi West 4.6 mph - N/A   Clear
12:15 PM 32.0 °F 26.4 °F -4.0 °F 21% 30.15 in 10.0 mi NW 5.8 mph - N/A   Clear
12:35 PM 32.0 °F 27.5 °F -5.8 °F 20% 30.12 in 10.0 mi WNW 4.6 mph - N/A   Clear
12:55 PM 33.8 °F 30.8 °F -5.8 °F 18% 30.11 in 10.0 mi North 3.5 mph - N/A   Clear
1:15 PM 33.8 °F 28.6 °F -5.8 °F 18% 30.10 in 10.0 mi WNW 5.8 mph - N/A   Clear
1:35 PM 33.8 °F 27.7 °F -5.8 °F 18% 30.08 in 10.0 mi West 6.9 mph - N/A   Clear
2:15 PM 35.6 °F 31.7 °F -4.0 °F 18% 30.07 in 10.0 mi West 4.6 mph - N/A   Clear
2:35 PM 35.6 °F 29.9 °F -2.2 °F 20% 30.06 in 10.0 mi West 6.9 mph - N/A   Clear
2:55 PM 35.6 °F - -2.2 °F 20% 30.05 in 10.0 mi Calm Calm - N/A   Clear
3:15 PM 35.6 °F 31.7 °F -2.2 °F 20% 30.05 in 10.0 mi WSW 4.6 mph - N/A   Clear
3:35 PM 37.4 °F 34.9 °F -2.2 °F 19% 30.04 in 10.0 mi West 3.5 mph - N/A   Clear
3:55 PM 37.4 °F 33.8 °F -2.2 °F 19% 30.04 in 10.0 mi SW 4.6 mph - N/A   Clear
4:15 PM 37.4 °F - -2.2 °F 19% 30.04 in 10.0 mi Calm Calm - N/A   Clear
4:35 PM 37.4 °F - -2.2 °F 19% 30.04 in 10.0 mi Calm Calm - N/A   Clear
4:55 PM 35.6 °F - -2.2 °F 20% 30.04 in 10.0 mi Calm Calm - N/A   Clear
5:15 PM 35.6 °F - -0.4 °F 22% 30.04 in 10.0 mi Calm Calm - N/A   Clear
5:35 PM 35.6 °F - -0.4 °F 22% 30.04 in 10.0 mi Calm Calm - N/A   Clear
5:55 PM 32.0 °F 25.6 °F -0.4 °F 25% 30.03 in 10.0 mi SE 6.9 mph - N/A   Clear
6:15 PM 32.0 °F 27.5 °F -0.4 °F 25% 30.03 in 10.0 mi SE 4.6 mph - N/A   Clear
6:35 PM 32.0 °F 25.6 °F -0.4 °F 25% 30.03 in 10.0 mi SE 6.9 mph - N/A   Clear
7:15 PM 30.2 °F 22.6 °F 1.4 °F 29% 30.02 in 10.0 mi SE 8.1 mph - N/A   Clear
7:35 PM 30.2 °F 22.6 °F 3.2 °F 32% 30.03 in 10.0 mi SSE 8.1 mph - N/A   Clear
7:55 PM 30.2 °F 23.4 °F 3.2 °F 32% 30.04 in 10.0 mi SSE 6.9 mph - N/A   Clear
8:15 PM 28.4 °F 20.4 °F 5.0 °F 37% 30.04 in 10.0 mi SSE 8.1 mph - N/A   Clear
8:35 PM 26.6 °F 18.2 °F 5.0 °F 40% 30.05 in 10.0 mi SSE 8.1 mph - N/A   Clear
8:55 PM 26.6 °F 18.2 °F 5.0 °F 40% 30.05 in 10.0 mi South 8.1 mph - N/A   Clear
9:15 PM 26.6 °F 17.5 °F 5.0 °F 40% 30.04 in 10.0 mi SSE 9.2 mph - N/A   Clear
9:35 PM 24.8 °F 16.1 °F 5.0 °F 43% 30.05 in 10.0 mi South 8.1 mph - N/A   Clear
9:55 PM 26.6 °F 17.5 °F 5.0 °F 40% 30.05 in 10.0 mi SSE 9.2 mph - N/A   Clear
10:15 PM 26.6 °F 18.2 °F 5.0 °F 40% 30.05 in 10.0 mi SSE 8.1 mph - N/A   Clear
10:35 PM 24.8 °F 15.3 °F 5.0 °F 43% 30.04 in 10.0 mi SSE 9.2 mph - N/A   Clear
10:55 PM 26.6 °F 18.2 °F 6.8 °F 43% 30.04 in 10.0 mi SSE 8.1 mph - N/A   Clear
11:35 PM 23.0 °F 15.8 °F 6.8 °F 50% 30.05 in 10.0 mi SSE 5.8 mph - N/A   Clear
11:55 PM 23.0 °F 15.8 °F 6.8 °F 50% 30.06 in 10.0 mi SSE 5.8 mph - N/A   Clear